| time (UTC) | temp C | wind direction | speed KPH | gust KPH | rain 1hr cm | rain 24hr cm | rain mn cm | humidity % | barometer mb |
| 20260901080043 | 14 | 230 | 6.4 | 14.5 | 0.00 | 0.23 | 0.00 | 89 | 1019.7 |
| 20260901074535 | 14 | 238 | 4.8 | 16.1 | 0.00 | 0.23 | 0.00 | 91 | 1019.6 |
| 20260901073037 | 13 | 258 | 3.2 | 12.9 | 0.00 | 0.23 | 0.00 | 91 | 1019.5 |
| 20260901071533 | 13 | 211 | 3.2 | 12.9 | 0.00 | 0.23 | 0.00 | 92 | 1019.4 |
| 20260901070034 | 13 | 271 | 6.4 | 17.7 | 0.00 | 0.23 | 0.00 | 92 | 1019.3 |
| 20260901064531 | 13 | 240 | 4.8 | 17.7 | 0.00 | 0.23 | 0.00 | 93 | 1019.4 |
| 20260901063029 | 13 | 233 | 4.8 | 16.1 | 0.00 | 0.23 | 0.00 | 93 | 1019.4 |
| 20260901061528 | 13 | 241 | 9.7 | 24.1 | 0.00 | 0.23 | 0.00 | 93 | 1019.1 |
| 20260901060026 | 13 | 234 | 6.4 | 16.1 | 0.00 | 0.23 | 0.00 | 93 | 1019.0 |
| 20260901054525 | 13 | 249 | 8.0 | 22.5 | 0.00 | 0.23 | 0.00 | 93 | 1019.0 |
| 20260901053023 | 13 | 277 | 8.0 | 17.7 | 0.00 | 0.23 | 0.00 | 93 | 1018.9 |
| 20260901051522 | 13 | 223 | 6.4 | 17.7 | 0.00 | 0.23 | 0.00 | 93 | 1018.9 |
| 20260901050021 | 12 | 203 | 4.8 | 16.1 | 0.00 | 0.23 | 0.00 | 92 | 1018.8 |
| 20260901044518 | 12 | 137 | 8.0 | 19.3 | 0.00 | 0.23 | 0.00 | 92 | 1018.7 |
| 20260901043020 | 13 | 274 | 4.8 | 17.7 | 0.00 | 0.23 | 0.00 | 92 | 1018.6 |
| 20260901041514 | 13 | 246 | 4.8 | 16.1 | 0.00 | 0.23 | 0.00 | 92 | 1018.4 |
| 20260901040013 | 13 | 221 | 1.6 | 12.9 | 0.00 | 0.23 | 0.00 | 92 | 1018.4 |
| 20260901034513 | 13 | 261 | 3.2 | 14.5 | 0.00 | 0.23 | 0.00 | 92 | 1018.4 |
| 20260901033010 | 13 | 248 | 3.2 | 14.5 | 0.00 | 0.23 | 0.00 | 92 | 1018.3 |
| 20260901031509 | 13 | 266 | 4.8 | 17.7 | 0.00 | 0.23 | 0.00 | 92 | 1018.4 |
| 20260901030014 | 13 | 239 | 6.4 | 16.1 | 0.00 | 0.23 | 0.00 | 92 | 1018.3 |
| 20260901024506 | 13 | 268 | 4.8 | 14.5 | 0.00 | 0.23 | 0.00 | 92 | 1018.4 |
| 20260901023004 | 13 | 261 | 3.2 | 9.7 | 0.00 | 0.23 | 0.00 | 92 | 1018.2 |
| 20260901021504 | 13 | 259 | 6.4 | 16.1 | 0.00 | 0.23 | 0.00 | 92 | 1018.2 |
| 20260901020002 | 13 | 250 | 3.2 | 16.1 | 0.00 | 0.23 | 0.00 | 92 | 1018.1 |
| 20260901014501 | 13 | 238 | 3.2 | 16.1 | 0.00 | 0.23 | 0.00 | 92 | 1018.0 |
| 20260901013108 | 13 | 245 | 1.6 | 12.9 | 0.00 | 0.23 | 0.00 | 92 | 1017.9 |
| 20260901011559 | 13 | 235 | 4.8 | 17.7 | 0.00 | 0.23 | 0.00 | 91 | 1017.9 |
| 20260901010057 | 13 | 253 | 6.4 | 17.7 | 0.00 | 0.23 | 0.00 | 91 | 1017.9 |
| 20260901004557 | 13 | 249 | 3.2 | 22.5 | 0.00 | 0.23 | 0.00 | 91 | 1017.8 |
| 20260901003059 | 13 | 242 | 3.2 | 12.9 | 0.00 | 0.23 | 0.00 | 90 | 1017.7 |
| 20260901001607 | 13 | 211 | 6.4 | 17.7 | 0.00 | 0.23 | 0.00 | 90 | 1017.8 |
| 20260901000056 | 13 | 275 | 6.4 | 22.5 | 0.00 | 0.23 | 0.00 | 90 | 1017.8 |
| 20260831234602 | 13 | 267 | 4.8 | 20.9 | 0.00 | 0.23 | 0.00 | 90 | 1017.9 |
| 20260831233050 | 13 | 286 | 6.4 | 20.9 | 0.00 | 0.23 | 0.00 | 90 | 1017.9 |
| 20260831231547 | 13 | 252 | 4.8 | 16.1 | 0.00 | 0.23 | 0.00 | 90 | 1017.9 |
| 20260831230045 | 13 | 251 | 4.8 | 17.7 | 0.00 | 0.23 | 0.00 | 90 | 1018.0 |
| 20260831224543 | 13 | 267 | 8.0 | 17.7 | 0.00 | 0.23 | 0.00 | 90 | 1018.0 |
| 20260831223044 | 13 | 263 | 4.8 | 16.1 | 0.00 | 0.23 | 0.00 | 90 | 1017.9 |
| 20260831221542 | 13 | 298 | 3.2 | 19.3 | 0.00 | 0.23 | 0.00 | 90 | 1017.9 |
| 20260831220046 | 13 | 266 | 3.2 | 20.9 | 0.00 | 0.23 | 0.00 | 90 | 1017.9 |
| 20260831214538 | 13 | 267 | 6.4 | 19.3 | 0.00 | 0.23 | 0.23 | 91 | 1017.8 |
| 20260831213038 | 13 | 265 | 3.2 | 19.3 | 0.00 | 0.23 | 0.23 | 90 | 1017.7 |
| 20260831211534 | 13 | 238 | 6.4 | 19.3 | 0.00 | 0.23 | 0.23 | 91 | 1017.5 |
| 20260831210036 | 13 | 237 | 8.0 | 17.7 | 0.00 | 0.23 | 0.23 | 91 | 1017.3 |
| 20260831204530 | 13 | 242 | 4.8 | 17.7 | 0.00 | 0.23 | 0.23 | 91 | 1017.4 |
| 20260831203028 | 13 | 291 | 3.2 | 9.7 | 0.00 | 0.23 | 0.23 | 91 | 1017.3 |
| 20260831201536 | 13 | 240 | 4.8 | 14.5 | 0.00 | 0.23 | 0.23 | 92 | 1017.1 |
| 20260831200029 | 13 | 257 | 3.2 | 12.9 | 0.00 | 0.23 | 0.23 | 91 | 1016.9 |
| 20260831194535 | 13 | 247 | 3.2 | 12.9 | 0.00 | 0.23 | 0.23 | 91 | 1016.8 |
| 20260831193025 | 13 | 229 | 3.2 | 9.7 | 0.00 | 0.23 | 0.23 | 90 | 1016.5 |
| 20260831191518 | 13 | 253 | 4.8 | 14.5 | 0.03 | 0.23 | 0.23 | 90 | 1016.2 |
| 20260831190016 | 13 | 287 | 4.8 | 19.3 | 0.03 | 0.23 | 0.23 | 90 | 1016.0 |
| 20260831184522 | 13 | 30 | 6.4 | 27.4 | 0.05 | 0.23 | 0.23 | 90 | 1015.8 |
| 20260831183012 | 13 | 260 | 8.0 | 17.7 | 0.05 | 0.23 | 0.23 | 89 | 1015.6 |
| 20260831181517 | 14 | 269 | 3.2 | 17.7 | 0.05 | 0.23 | 0.23 | 88 | 1015.4 |
| 20260831180008 | 15 | 321 | 3.2 | 14.5 | 0.05 | 0.23 | 0.23 | 84 | 1014.9 |
| 20260831174506 | 16 | 262 | 4.8 | 27.4 | 0.00 | 0.18 | 0.18 | 78 | 1014.6 |
| 20260831173003 | 16 | 345 | 6.4 | 27.4 | 0.00 | 0.18 | 0.18 | 78 | 1014.3 |
| 20260831171501 | 16 | 266 | 3.2 | 22.5 | 0.00 | 0.18 | 0.18 | 78 | 1014.3 |
| 20260831164558 | 16 | 230 | 4.8 | 25.7 | 0.00 | 0.18 | 0.18 | 77 | 1013.9 |
| 20260831163057 | 16 | 259 | 11.3 | 33.8 | 0.00 | 0.18 | 0.18 | 78 | 1013.6 |
| 20260831161555 | 15 | 329 | 6.4 | 25.7 | 0.03 | 0.18 | 0.18 | 82 | 1013.4 |
| 20260831160056 | 15 | 249 | 3.2 | 24.1 | 0.03 | 0.18 | 0.18 | 84 | 1013.3 |
| 20260831154554 | 15 | 231 | 11.3 | 22.5 | 0.03 | 0.18 | 0.18 | 85 | 1013.4 |
| 20260831153056 | 15 | 301 | 11.3 | 27.4 | 0.03 | 0.18 | 0.18 | 85 | 1013.3 |
| 20260831151600 | 15 | 247 | 12.9 | 30.6 | 0.00 | 0.15 | 0.15 | 83 | 1013.3 |
| 20260831150051 | 16 | 333 | 9.7 | 32.2 | 0.03 | 0.15 | 0.15 | 82 | 1013.2 |
| 20260831144602 | 15 | 247 | 6.4 | 29.0 | 0.13 | 0.15 | 0.15 | 86 | 1012.8 |
| 20260831143048 | 15 | 254 | 9.7 | 29.0 | 0.13 | 0.15 | 0.15 | 88 | 1012.8 |
| 20260831141548 | 15 | 257 | 12.9 | 27.4 | 0.13 | 0.15 | 0.15 | 87 | 1012.7 |
| 20260831140041 | 16 | 243 | 4.8 | 22.5 | 0.10 | 0.15 | 0.15 | 83 | 1012.2 |
| 20260831134540 | 16 | 297 | 6.4 | 25.7 | 0.00 | 0.05 | 0.05 | 79 | 1011.8 |
| 20260831133036 | 16 | 286 | 6.4 | 24.1 | 0.00 | 0.05 | 0.05 | 79 | 1011.7 |
| 20260831131538 | 17 | 252 | 11.3 | 33.8 | 0.00 | 0.05 | 0.05 | 78 | 1011.4 |
| 20260831130040 | 17 | 204 | 6.4 | 30.6 | 0.00 | 0.05 | 0.05 | 77 | 1011.3 |
| 20260831124533 | 17 | 256 | 11.3 | 27.4 | 0.00 | 0.05 | 0.05 | 81 | 1011.2 |
| 20260831123033 | 16 | 218 | 9.7 | 33.8 | 0.03 | 0.05 | 0.05 | 82 | 1011.5 |
| 20260831121536 | 16 | 223 | 9.7 | 25.7 | 0.03 | 0.05 | 0.05 | 84 | 1011.5 |
| 20260831120030 | 15 | 261 | 8.0 | 19.3 | 0.03 | 0.05 | 0.05 | 85 | 1011.5 |
| 20260831114533 | 16 | 236 | 12.9 | 30.6 | 0.03 | 0.05 | 0.05 | 79 | 1011.4 |
| 20260831113028 | 17 | 213 | 9.7 | 37.0 | 0.00 | 0.03 | 0.03 | 77 | 1011.2 |
| 20260831111525 | 16 | 259 | 9.7 | 29.0 | 0.00 | 0.03 | 0.03 | 82 | 1011.3 |
| 20260831110024 | 16 | 187 | 12.9 | 33.8 | 0.00 | 0.03 | 0.03 | 80 | 1011.4 |
| 20260831104524 | 16 | 257 | 12.9 | 25.7 | 0.03 | 0.03 | 0.03 | 80 | 1011.1 |
| 20260831103021 | 15 | 275 | 8.0 | 25.7 | 0.03 | 0.03 | 0.03 | 82 | 1011.2 |
| 20260831101520 | 15 | 180 | 11.3 | 25.7 | 0.03 | 0.03 | 0.03 | 84 | 1011.1 |
| 20260831100018 | 15 | 199 | 11.3 | 29.0 | 0.03 | 0.03 | 0.03 | 86 | 1011.0 |
| 20260831094522 | 16 | 215 | 9.7 | 27.4 | 0.00 | 0.00 | 0.00 | 80 | 1010.9 |
| 20260831093017 | 16 | 246 | 12.9 | 32.2 | 0.00 | 0.00 | 0.00 | 77 | 1010.9 |
| 20260831091514 | 16 | 275 | 11.3 | 29.0 | 0.00 | 0.00 | 0.00 | 80 | 1010.7 |
| 20260831090016 | 15 | 259 | 12.9 | 30.6 | 0.00 | 0.00 | 0.00 | 81 | 1010.8 |
| 20260831084525 | 16 | 248 | 11.3 | 30.6 | 0.00 | 0.00 | 0.00 | 81 | 1010.7 |
| 20260831083011 | 16 | 271 | 11.3 | 30.6 | 0.00 | 0.00 | 0.00 | 79 | 1010.8 |